Погода в Шекпээре

Россия / Республика Тыва     51°10′09″N   90°40′48″E
темп.,
°C
ветер,
м/с
пор.,
м/с
влажн.,
%
обл.,
%
осадки,
мм/ч
давл.,
гПа
погр.,
м
14 мая, пт
пт1401:00+10сз1139100 0.0 101213
04:00+8ссв1144100 0.0 101210
07:00+10всв113858 0.0 1013123
10:00+13юв113024 0.0 1013996
13:00+17ююз22236 0.0 10111981
16:00+17ссв5429100 0.1 10102054
19:00+15зсз3637100 0.6 10141829
22:00+11зюз115765 0.2 1017146
15 мая, сб
сб1501:00+10сз235624 0.3 1020231
04:00+8сз2265100 0.0 102239
07:00+9ссз125255 0.0 1023214
10:00+13з2333100 0.0 10231296
13:00+17ююз24215 0.0 10202261
16:00+20ю452019 0.0 10182745
19:00+19ю222350 0.0 10181201
22:00+14св223211 0.0 101911
16 мая, вс
вс1601:00+11ссв21455 0.0 101912
04:00+9с11545 0.0 101910
07:00+12сз00455 0.0 1019120
10:00+17юз12345 0.0 1017798
13:00+21юз13235 0.0 10141767
16:00+23юз231996 0.0 10113232
19:00+22с352587 0.1 10112641
22:00+16ссв224020 0.0 101213
17 мая, пн
пн1701:00+14с225190 0.0 101315
04:00+12сз225676 0.0 101311
07:00+14зюз1149100 0.0 101381
10:00+19зюз353511 0.0 10111117
13:00+23зсз572499 0.0 10092863
16:00+22сз892677 0.0 10082800
19:00+20ссз6735100 0.0 1009929
22:00+16ссз4849100 0.1 1011359
18 мая, вт
вт1801:00+13сз2267100 0.9 101383
04:00+12з236899 0.1 101254
07:00+14з345992 0.1 1011252
10:00+19зюз363749 0.0 10091819
13:00+23з8112599 0.0 10053018
16:00+17ссз51047100 0.1 1006629
19:00+17ссв0142100 0.2 1003571
22:00+15з2554100 0.3 1005430